Quantico, VA

8:02 PM EDT on September 30, 2016 (GMT -0400)
Quantico Marine Corps Air Facility

Weather History for KNYG - November, 2012

Change the Weather History Date:

Thursday, November 29, 2012

  Actual Average Record
Temperature  
Mean Temperature 38 °F -  
Max Temperature 48 °F 50 °F 68 °F (1998)
Min Temperature 28 °F 33 °F 24 °F (2002)
Degree Days  
Heating Degree Days 27    
Moisture  
Dew Point 26 °F    
Average Humidity 67    
Maximum Humidity 82    
Minimum Humidity 39    
Precipitation  
Precipitation 0.00 in - - ()
Sea Level Pressure  
Sea Level Pressure 30.42 in    
Wind  
Wind Speed 6 mph (WSW)    
Max Wind Speed 9 mph    
Max Gust Speed -    
Visibility 10 miles    
Events      
Averages and records for this station are not official NWS values.
T = Trace of Precipitation, MM = Missing Value Source: NWS Daily Summary

Daily Weather History Graph

Daily Weather History Graph

Search for Another Location

Airport or City:

Trip Planner

Search our weather history database for the weather conditions in past years. The results will help you decide how hot, cold, wet, or windy it might be!

Date:

Astronomy

Nov. 29, 2012 Rise Set
Actual Time 7:06 AM EST 4:49 PM EST
Civil Twilight 6:37 AM EST 5:18 PM EST
Nautical Twilight 6:04 AM EST 5:50 PM EST
Astronomical Twilight 5:32 AM EST 6:22 PM EST
Moon 5:50 PM EST (11/29) 7:51 AM EST (11/29)
Length of Visible Light 10h 41m
Length of Day
9h 42m
Full, 99% of the Moon is Illuminated
Nov 29
Full
Dec 6
Last Quarter
Dec 13
New
Dec 20
First Quarter
Dec 28
Full

Hourly Weather History & Observations

Time (EST) Temp. Windchill Dew Point Humidity Pressure Visibility Wind Dir Wind Speed Gust Speed Precip Events Conditions
12:56 AM 30.0 °F 24.1 °F 24.1 °F 79% 30.41 in 10.0 mi WNW 5.8 mph - N/A   Clear
1:56 AM 28.9 °F 21.9 °F 23.0 °F 78% 30.42 in 10.0 mi WNW 6.9 mph - N/A   Clear
2:56 AM 28.0 °F 20.0 °F 21.9 °F 78% 30.41 in 10.0 mi WNW 8.1 mph - N/A   Clear
3:56 AM 28.9 °F 22.8 °F 23.0 °F 78% 30.42 in 10.0 mi WNW 5.8 mph - N/A   Clear
4:56 AM 28.9 °F 20.4 °F 24.1 °F 82% 30.43 in 10.0 mi WNW 9.2 mph - N/A   Clear
5:56 AM 30.0 °F 26.5 °F 23.0 °F 75% 30.43 in 10.0 mi WSW 3.5 mph - N/A   Clear
6:56 AM 28.0 °F 22.8 °F 21.9 °F 78% 30.46 in 10.0 mi WNW 4.6 mph - N/A   Scattered Clouds
7:56 AM 30.9 °F 25.2 °F 23.0 °F 72% 30.47 in 10.0 mi WNW 5.8 mph - N/A   Scattered Clouds
8:56 AM 35.1 °F - 26.1 °F 70% 30.48 in 10.0 mi Calm Calm - N/A   Mostly Cloudy
9:56 AM 39.9 °F 36.7 °F 28.0 °F 63% 30.49 in 10.0 mi South 4.6 mph - N/A   Scattered Clouds
10:56 AM 43.0 °F 38.8 °F 28.9 °F 58% 30.49 in 10.0 mi South 6.9 mph - N/A   Partly Cloudy
11:56 AM 46.0 °F 41.4 °F 28.0 °F 50% 30.46 in 10.0 mi South 9.2 mph - N/A   Partly Cloudy
12:56 PM 46.9 °F - 28.0 °F 48% 30.43 in 10.0 mi South 9.2 mph - N/A   Partly Cloudy
1:56 PM 48.0 °F - 30.0 °F 50% 30.40 in 10.0 mi SSE 9.2 mph - N/A   Clear
2:56 PM 48.0 °F - 32.0 °F 54% 30.38 in 10.0 mi South 8.1 mph - N/A   Clear
3:56 PM 48.0 °F - 30.0 °F 50% 30.38 in 10.0 mi SSW 9.2 mph - N/A   Clear
4:56 PM 46.0 °F 42.5 °F 28.0 °F 50% 30.37 in 10.0 mi SW 6.9 mph - N/A   Partly Cloudy
5:56 PM 46.0 °F 44.8 °F 21.9 °F 39% 30.39 in 10.0 mi SW 3.5 mph - N/A   Clear
6:56 PM 39.0 °F - 30.9 °F 73% 30.39 in 10.0 mi Calm Calm - N/A   Clear
7:56 PM 39.9 °F - 27.0 °F 60% 30.39 in 10.0 mi Calm Calm - N/A   Clear
8:56 PM 35.1 °F 32.2 °F 28.0 °F 76% 30.39 in 10.0 mi WNW 3.5 mph - N/A   Clear
9:56 PM 34.0 °F 31.0 °F 27.0 °F 75% 30.39 in 10.0 mi WNW 3.5 mph - N/A   Clear
10:56 PM 33.1 °F 30.0 °F 27.0 °F 78% 30.38 in 10.0 mi West 3.5 mph - N/A   Clear
11:56 PM 32.0 °F 28.7 °F 27.0 °F 82% 30.37 in 10.0 mi WNW 3.5 mph - N/A   Clear